Regional Weather Roundup
Issued by NWS

Home | Current Version | Previous Version | Graphics & Text | Print | Product List | Glossary On
Versions: 1 2 3 4 5 6 7 8 9 10 11 12 13 14 15 16 17 18 19 20 21 22 23 24 25 26 27 28 29 30 31 32 33 34 35 36 37 38 39 40 41 42 43 44 45 46 47 48 49
000
ASUS45 KBOU 220407
RWRCO

WEATHER ROUNDUP FOR COLORADO
NATIONAL WEATHER SERVICE DENVER/BOULDER CO
1000 PM MDT MON JUL 21 2014

NOTE: "FAIR" INDICATES FEW OR NO CLOUDS BELOW 12000 FEET WITH NO
SIGNIFICANT WEATHER AND/OR OBSTRUCTIONS TO VISIBILITY.

COZ001>005-013-030-031-220500-
...NORTHWEST COLORADO...

CITY           SKY/WX    TMP DP  RH WIND       PRES   REMARKS
CRAIG          CLEAR     64  42  44 SE5       30.24R
HAYDEN         PTCLDY    66  36  32 E10       30.27R
MEEKER         CLEAR     65  30  27 N6        30.26R
MOUNT WERNER   NOT AVBL
STEAMBOAT SPGS PTCLDY    64  39  40 CALM      30.31R
WALDEN         CLEAR     52  36  54 SE7       30.42R
$$

COZ006>008-011-220500-
...WEST CENTRAL VALLEYS...

CITY           SKY/WX    TMP DP  RH WIND       PRES   REMARKS
GRAND JUNCTION CLEAR     77  18  11 CALM      30.11R
MONTROSE       CLEAR     76  31  19 SE9       30.23R
EAGLE          CLEAR     72  39  30 E7        30.30R
RIFLE          CLEAR     77  35  21 SE9       30.18R
DELTA          CLEAR     82  31  16 CALM      30.16R
NUCLA          CLEAR     79  23  12 S5        30.28R
$$

COZ017>023-064>068-220500-
...SOUTHWEST COLORADO...

CITY           SKY/WX    TMP DP  RH WIND       PRES   REMARKS
DURANGO        PTCLDY    73  30  20 SW6       30.30R
CORTEZ         CLEAR     65  39  38 NE8       30.25R
PAGOSA SPRINGS PTCLDY    70  39  33 N3        30.40R
TELLURIDE      PTCLDY    64  34  32 SE7       30.53R
WOLF CREEK PAS NOT AVBL
$$

COZ009-010-012-014-032>034-037-058>063-220500-
...CENTRAL COLORADO...

CITY           SKY/WX    TMP DP  RH WIND       PRES   REMARKS
ASPEN          CLEAR     63  37  38 SW9       30.40R
BUENA VISTA    CLEAR     62  38  41 NE3       30.42R
COPPER MTN     PTCLDY    59  30  33 W13       30.77R
BERTHOUD PASS  FAIR      50  36  57 W10       30.82R
COTTONWOOD PAS CLEAR     68  16  13 N6        30.58R
GUNNISON       CLEAR     63  39  42 N8        30.43R
KREMMLING      PTCLDY    66  32  28 CALM      30.37R
LEADVILLE      CLEAR     54  32  43 E7        30.57R
MONARCH PASS   CLEAR     54  34  47 W16       30.86R
SALIDA         CLEAR    N/A N/A N/A W6        30.45R
SUNLIGHT       CLEAR     59  32  36 CALM      30.67R
WILKERSON PASS CLEAR     59  30  33 N6        30.73R
$$

COZ069>075-220500-
...SAN LUIS VALLEY/SANGRE DE CRISTO MOUNTAINS...

CITY           SKY/WX    TMP DP  RH WIND       PRES   REMARKS
ALAMOSA        PTCLDY    59  51  75 CALM      30.38S
LA VETA PASS   PTCLDY    57  39  51 SW6       30.60R
SAGUACHE       CLEAR     61  43  51 N8        30.41R
$$

COZ035-036-038>040-220500-
...NORTHERN COLORADO FRONT RANGE...

CITY           SKY/WX    TMP DP  RH WIND       PRES   REMARKS
DENVER INTL AP PTCLDY    78  43  28 S9        30.15R
DMNS CITY PARK   N/A     73  51  46 SW2       30.15R
AURORA         PTCLDY    72  48  42 S9        30.19R
FRONT RANGE AP NOT AVBL
ERIE MUNI ARPT PTCLDY    73  50  44 CALM      30.14R
BOULDER MUN AP PTCLDY    79  43  27 SW5       30.15R
CENTENNIAL     PTCLDY    72  44  36 S6        30.20R
BROOMFIELD     NOT AVBL
FORT COLLINS   MOCLDY    77  54  44 NE6       30.13R
LONGMONT       MOCLDY    76  46  34 NW8       30.15R
$$

COZ041-046-047-076>085-087-088-220500-
...PIKES PEAK/PALMER DIVIDE AND SOUTHERN FOOTHILLS...

CITY           SKY/WX    TMP DP  RH WIND       PRES   REMARKS
COLO. SPRINGS  PTCLDY    71  51  49 N6        30.25R
A. F. ACADEMY  CLEAR     65  49  56 N9        30.28R
ELLICOTT       CLEAR     68  50  52 SW6       30.24R
FALCON         CLEAR     64  49  57 CALM      30.32R
FORT CARSON    CLEAR     67  49  51 NW5       30.21R
LIMON          CLEAR     71  45  39 CALM      30.19R
MONUMENT HILL  CLEAR     64  45  48 S8        30.31R
TRINIDAD       PTCLDY    72  52  49 W8        30.24R
$$

COZ042>045-048>051-090-091-220500-
...NORTHEAST COLORADO...

CITY           SKY/WX    TMP DP  RH WIND       PRES   REMARKS
GREELEY ARPT   PTCLDY    70  55  60 N14       30.13R
AKRON          PTCLDY    79  50  36 SE10      30.12R
BURLINGTON     CLEAR     74  61  63 SE15      30.11R
WRAY             N/A     79  59  50 S12       30.05R
STERLING       PTCLDY    81  55  41 E8        30.06R
HOLYOKE        CLEAR     81  61  50 N3        30.07R
FORT MORGAN    PTCLDY    75  46  36 NE9       30.11R
$$

COZ086-089-092>099-220500-
...SOUTHEAST COLORADO...

CITY           SKY/WX    TMP DP  RH WIND       PRES   REMARKS
PUEBLO         CLEAR     75  51  43 E7        30.12R
LA JUNTA       PTCLDY    80  56  43 SW10      30.10R
LAMAR          CLOUDY    76  63  64 SE22G30   30.08R
SPRINGFIELD      N/A     74  62  66 SE14      30.17R
$$


USA.gov is the U.S. government's official web portal to all federal, state and local government web resources and services.